SKYSAT-C3

Last updated on Mon Sep 21 2026 00:02:46 GMT+0000 (Coordinated Universal Time)

1 41774U 16058E 26263.35086630 .00018701 00000+0 26601-3 0 9997 2 41774 96.8957 290.7593 0001612 79.2963 280.8474 15.56406733560891
UTC large
Height (km)
Speed (km/s)
/
Latitude / Longitude
Inclination (degrees)
Orbital Period (minutes)
Azimuth
Elevation
Range (km)
Doppler Factor

Next 0 passes for location: London (51.5072 / 0.1276)

No passes found over London.
SKYSAT-C3